DW0268 Weather Reports


time (UTC)temp
C
wind
direction
speed
KPH
gust
KPH
rain 1hr
cm
rain 24hr
cm
rain mn
cm
humidity
%
barometer
mb
20260906171529 34 40 8.0 22.5 0.00 0.00 0.00 69 1016.1
20260906170026 33 43 4.8 16.1 0.00 0.00 0.00 69 1016.3
20260906164532 33 98 4.8 14.5 0.00 0.00 0.00 69 1016.4
20260906163019 33 92 8.0 17.7 0.00 0.00 0.00 70 1016.3
20260906161511 33 44 3.2 16.1 0.00 0.00 0.00 71 1016.6
20260906160008 32 35 3.2 9.7 0.00 0.00 0.00 71 1016.6
20260906154503 32 24 6.4 19.3 0.00 0.00 0.00 72 1016.5
20260906153059 31 83 3.2 16.1 0.00 0.00 0.00 75 1016.6
20260906151556 31 66 9.7 19.3 0.00 0.00 0.00 76 1016.4
20260906150053 30 49 4.8 17.7 0.00 0.00 0.00 78 1016.4
20260906144551 30 98 6.4 19.3 0.00 0.00 0.00 79 1016.4
20260906143048 29 49 9.7 17.7 0.00 0.00 0.00 80 1016.3
20260906141545 29 72 8.0 16.1 0.00 0.00 0.00 81 1016.3
20260906140048 28 70 9.7 16.1 0.00 0.00 0.00 83 1016.3
20260906134537 27 30 1.6 8.0 0.00 0.00 0.00 85 1016.5
20260906133038 27 54 1.6 14.5 0.00 0.00 0.00 86 1016.6
20260906131531 27 55 1.6 12.9 0.00 0.00 0.00 86 1016.6
20260906130032 26 338 3.2 8.0 0.00 0.00 0.00 88 1016.4
20260906124536 25 360 1.6 9.7 0.00 0.00 0.00 89 1016.4
20260906123034 25 351 3.2 12.9 0.00 0.00 0.00 91 1016.2
20260906121528 24 355 4.8 8.0 0.00 0.00 0.00 91 1015.9
20260906120023 24 355 1.6 6.4 0.00 0.00 0.00 91 1015.9
20260906114522 24 351 4.8 8.0 0.00 0.00 0.00 91 1015.6
20260906113020 24 355 4.8 9.7 0.00 0.00 0.00 91 1015.3
20260906111518 24 330 3.2 6.4 0.00 0.00 0.00 91 1015.2
20260906110020 25 257 1.6 4.8 0.00 0.00 0.00 91 1015.0
20260906104515 24 248 1.6 3.2 0.00 0.00 0.00 91 1015.0
20260906103035 24 246 0.0 0.0 0.00 0.00 0.00 91 1015.0
20260906101513 25 246 0.0 4.8 0.00 0.00 0.00 91 1014.9
20260906100023 25 246 1.6 3.2 0.00 0.00 0.00 90 1014.9
20260906094511 25 246 0.0 0.0 0.00 0.00 0.00 90 1014.8
20260906093010 25 246 0.0 0.0 0.00 0.00 0.00 91 1015.0
20260906091510 25 246 0.0 0.0 0.00 0.00 0.00 91 1014.9
20260906090009 25 246 0.0 0.0 0.00 0.00 0.00 91 1014.8
20260906084508 25 246 0.0 3.2 0.00 0.00 0.00 91 1014.7
20260906083006 25 246 1.6 4.8 0.00 0.00 0.00 90 1014.6
20260906081504 25 215 0.0 3.2 0.00 0.00 0.00 89 1014.5
20260906080007 25 215 0.0 3.2 0.00 0.00 0.00 89 1014.5
20260906074503 25 215 1.6 3.2 0.00 0.00 0.00 89 1014.6
20260906073101 25 215 1.6 3.2 0.00 0.00 0.00 89 1014.6
20260906071600 25 215 0.0 3.2 0.00 0.00 0.00 89 1014.7
20260906070058 25 215 0.0 6.4 0.00 0.00 0.00 88 1014.6
20260906064557 26 309 1.6 4.8 0.00 0.00 0.00 85 1014.7
20260906063052 26 334 0.0 6.4 0.00 0.00 0.00 84 1014.6
20260906061550 27 19 0.0 4.8 0.00 0.00 0.00 83 1014.5
20260906060049 27 345 0.0 3.2 0.00 0.00 0.00 83 1014.7
20260906054547 27 345 0.0 3.2 0.00 0.00 0.00 83 1014.7
20260906053047 27 344 1.6 9.7 0.00 0.00 0.00 82 1014.6
20260906051543 27 360 4.8 8.0 0.00 0.00 0.00 81 1014.7
20260906050045 27 355 3.2 6.4 0.00 0.00 0.00 81 1014.6
20260906044543 27 344 0.0 4.8 0.00 0.00 0.00 80 1014.7
20260906043039 28 344 0.0 1.6 0.00 0.00 0.00 79 1014.6
20260906041538 28 344 0.0 3.2 0.00 0.00 0.00 79 1014.5
20260906040037 28 344 0.0 0.0 0.00 0.00 0.00 80 1014.4
20260906034536 28 344 0.0 3.2 0.00 0.00 0.00 80 1014.6
20260906033036 28 344 0.0 3.2 0.00 0.00 0.00 79 1014.6
20260906031530 29 344 0.0 0.0 0.00 0.00 0.00 77 1014.5
20260906030030 29 344 0.0 1.6 0.00 0.00 0.00 75 1014.4
20260906024529 29 344 1.6 3.2 0.00 0.00 0.00 75 1014.4
20260906023028 29 344 0.0 6.4 0.00 0.00 0.00 76 1014.3
20260906021536 31 150 0.0 1.6 0.00 0.00 0.00 71 1014.1
20260906020022 30 150 1.6 4.8 0.00 0.00 0.00 73 1013.7
20260906014521 30 221 0.0 0.0 0.00 0.00 0.00 74 1013.6
20260906013032 31 221 1.6 9.7 0.00 0.00 0.00 72 1013.5
20260906011513 32 119 3.2 4.8 0.00 0.00 0.00 68 1013.2
20260906010013 32 119 1.6 3.2 0.00 0.00 0.00 66 1013.1
20260906004508 33 119 3.2 6.4 0.00 0.00 0.00 63 1013.2
20260906003010 33 113 3.2 6.4 0.00 0.00 0.00 61 1013.0
20260906001600 35 112 0.0 0.0 0.00 0.00 0.00 59 1013.2
20260906000056 35 112 0.0 3.2 0.00 0.00 0.00 56 1013.1
20260905234551 36 111 1.6 3.2 0.00 0.00 0.00 54 1013.2
20260905233048 36 111 0.0 4.8 0.00 0.00 0.00 51 1013.4
20260905231546 37 111 0.0 4.8 0.00 0.00 0.00 50 1013.5
20260905230041 37 109 3.2 6.4 0.00 0.00 0.00 49 1013.5
20260905224537 -17 0.0 0.0 0.00 0.00 0.00 1013.4
20260905221556 37 132 4.8 8.0 0.00 0.00 0.00 49 1013.3
20260905220054 36 91 1.6 12.9 0.00 0.00 0.00 51 1013.3
20260905214551 36 91 0.0 12.9 0.00 0.00 0.00 52 1013.4
20260905213050 37 79 8.0 16.1 0.00 0.00 0.00 49 1013.5
20260905211548 37 80 4.8 16.1 0.00 0.00 0.00 50 1013.4
20260905210046 37 84 8.0 22.5 0.00 0.00 0.00 50 1013.5
20260905204540 38 169 3.2 12.9 0.00 0.00 0.00 49 1013.6
20260905203037 37 155 3.2 8.0 0.00 0.00 0.00 50 1013.7
20260905201535 37 113 4.8 9.7 0.00 0.00 0.00 50 1014.0
20260905200035 37 161 3.2 12.9 0.00 0.00 0.00 51 1014.3
20260905194528 36 110 4.8 12.9 0.00 0.00 0.00 53 1014.5
20260905193029 36 104 6.4 11.3 0.00 0.00 0.00 52 1014.7
20260905191530 37 44 3.2 6.4 0.00 0.00 0.00 52 1015.0
20260905190031 37 223 3.2 8.0 0.00 0.00 0.00 51 1015.2
20260905184525 36 278 3.2 6.4 0.00 0.00 0.00 52 1015.4
20260905183018 36 55 4.8 8.0 0.00 0.00 0.00 53 1015.5
20260905181515 36 245 6.4 16.1 0.00 0.00 0.00 54 1015.6
20260905180015 36 259 4.8 14.5 0.00 0.00 0.00 54 1015.6
20260905174509 36 275 4.8 19.3 0.00 0.00 0.00 54 1015.6
20260905173008 35 271 11.3 16.1 0.00 0.00 0.00 56 1015.7